Christman Field Latest Observations
Date Time
MST
Temp
°F
RH
%
DewPt
°F
Wind
mph
Dir
°
Gust
mph
Dir
°
Press
in Hg
Solar
W/m^2
Prec
in
2020-01-25 01:20 26.9 77.8 20.9 5.2 326 5.7 343 24.760 0.0 0.00
2020-01-25 01:15 28.0 74.7 21.0 4.1 343 5.2 346 24.760 0.1 0.00
2020-01-25 01:10 28.7 74.8 21.7 2.9 9 4.0 12 24.760 0.1 0.00
2020-01-25 01:05 30.6 73.6 23.1 3.6 330 5.4 30 24.759 0.1 0.00
2020-01-25 01:00 31.0 70.5 22.5 3.5 256 4.4 256 24.755 0.0 0.00
2020-01-25 00:55 31.3 68.9 22.3 4.1 248 5.2 252 24.757 0.0 0.00
2020-01-25 00:50 30.2 71.0 21.9 0.2 254 2.0 254 24.759 0.0 0.00
2020-01-25 00:45 30.5 71.1 22.2 0.2 241 1.9 241 24.759 0.0 0.00
2020-01-25 00:40 30.6 71.3 22.4 2.5 241 3.1 255 24.759 0.1 0.00
2020-01-25 00:35 30.3 72.1 22.4 2.2 256 2.9 256 24.762 0.1 0.00
2020-01-25 00:30 29.7 73.5 22.3 1.9 256 2.7 256 24.765 0.1 0.00
2020-01-25 00:25 29.8 72.5 22.0 0.0 259 0.0 259 24.766 0.1 0.00
2020-01-25 00:20 29.3 73.0 21.7 0.1 259 1.3 259 24.766 0.1 0.00
2020-01-25 00:15 29.4 74.6 22.3 1.2 259 2.1 259 24.766 0.1 0.00
2020-01-25 00:10 29.2 76.2 22.7 1.4 256 2.8 256 24.770 0.1 0.00
2020-01-25 00:05 29.1 76.7 22.7 0.8 310 1.5 310 24.772 0.1 0.00
2020-01-25 00:00 28.8 76.7 22.4 1.3 310 2.2 338 24.773 0.0 0.00
2020-01-24 23:55 28.8 73.8 21.5 2.7 338 3.2 334 24.773 0.1 0.00
2020-01-24 23:50 28.9 74.2 21.7 1.0 334 4.6 315 24.773 0.1 0.00
2020-01-24 23:45 29.3 73.2 21.8 0.8 30 3.1 30 24.773 0.1 0.00
2020-01-24 23:40 30.0 72.3 22.2 4.3 26 5.3 36 24.773 0.1 0.00
2020-01-24 23:35 30.5 71.0 22.2 0.3 7 2.5 7 24.773 0.1 0.00
2020-01-24 23:30 30.4 71.7 22.4 0.0 7 0.0 7 24.773 0.0 0.00
2020-01-24 23:25 31.2 71.1 23.0 0.8 7 2.6 261 24.775 0.0 0.00
2020-01-24 23:20 32.0 67.1 22.3 1.8 261 2.7 261 24.776 0.0 0.00
2020-01-24 23:15 30.9 69.8 22.2 1.6 261 2.5 261 24.776 0.1 0.00
2020-01-24 23:10 30.0 73.2 22.5 1.7 261 3.0 261 24.776 0.1 0.00
2020-01-24 23:05 30.0 72.5 22.2 3.6 261 4.6 261 24.776 0.1 0.00
2020-01-24 23:00 30.4 73.0 22.8 3.6 261 5.0 274 24.777 0.1 0.00
2020-01-24 22:55 31.5 68.6 22.3 1.9 335 4.6 15 24.780 0.0 0.00
CIRA

Cooperative Institute for Research in the Atmosphere